Location: *
(17.3280°S, 114.7300°W)
Time: 07:42:33
(UTC+00:00)

Radarsat Rocket - Pass Details

Date: 05 August 2020
Orbit: 933 x 1492 km, 100.6° (Epoch: 21 September)

Event Time Altitude Azimuth Distance (km) Brightness Sun altitude
Rises 13:06:48 0° 15° (NNE) 4,071 7.6 -13.7°
Reaches altitude 10° 13:09:31 10° 14° (NNE) 3,035 7.0 -13.1°
Maximum altitude 13:16:19 87° 286° (WNW) 1,057 4.2 -11.5°
Drops below altitude 10° 13:22:27 10° 195° (SSW) 2,744 6.1 -10.1°
Sets 13:24:49 0° 195° (SSW) 3,658 6.7 -9.5°
